STARLINK-35208, 65854

Orbit data source: Space-Track

STARLINK-35208, 65854 is a payload satellite owned by SpaceX/Seattle (US) in LEO that was launched on Fri, 03 Oct 2025 UTC via an FALCON 9 launch vehicle from the Air Force Western Test Range (AFWTR). Payload-class satellites include a variety of spacecraft equipped with specific instruments for various scientific and technological missions. These include communications satellites like Starlink; space stations such as the ISS; scientific satellites like the Hubble; Earth observation satellites from companies like Planet Labs, Umbra, and HawkEye 360; GPS; miniature CubeSats for education and research; and military/defense satellites.

Loading next visibility...
Identifier
65854, 2025-223A
Orbit
LEO
Country
Flag of USUS
Related business
Manufacturer
SpaceX/Seattle
Mission
Operational spacecraft
Bus & Motor
STARLINK V2MO, Unknown motor
Mass
575 kg wet, ~530 kg dry
Launch date (UTC)
2025-10-03 (2 weeks ago)
Launch vehicle
FALCON 9
Launch site
Air Force Western Test Range (AFWTR)
Object type
Payload
Rocket body
Debris
Shape & HBR
Unknown shape, 17.7 m
Radar Cross Section
RCS unknown

Expand to show TLE details & history
Last TLE update: 7 hours ago

TLE from 7 hours ago
0 STARLINK-35208
1 65854U 25223A   25290.83091068 -.01668930  00000-0 -14432-1 0  9995
2 65854  53.1540 241.9837 0001157 270.4070  89.6816 15.71522879  2272
Epoch: 2025-10-17T19:56Z
TLE epoch observation values (Epoch: 2025-10-17T19:56:30.682Z)
Latitude
-0.00004°
Longitude
-83.71481°
Altitude
355.455 km
Speed
7.697 km/s
True Right ascension
16h 07m 56s
True Declination
0° 00' 00"
Sunlit
Object was in daylight at epoch
Visualization orbit readout
Latitude
Unknown
Longitude
Unknown
Altitude
Unknown
Speed
Unknown
Apparent Right ascension
Unknown
Apparent Declination
Unknown
Sunlit
N/A
Visualization observer readout
Local Sidereal Time
21:35:24
Azimuth
Unknown
Elevation
Unknown
Doppler factor
Unknown
Orbital elements
Apogee altitude
355.585 km
Perigee altitude
354.027 km
Semi-major axis
6,732.943 km
Eccentricity
0.00012
Inclination
53.154°
RAAN
241.9837°
Arg. of periapsis
270.407°
True anomaly
89.69486°
Mean anomaly
89.6816°
Eccentric anomaly
89.68823°
Mean motion
3.92858 °/min
Orbital period
91.64 mins
BSTAR
-0.014432
Loading maneuver chart data...
Computing Atmospheric mass density...
Loading historical data...
Loading historical data...
Loading historical data...
Loading historical data...
Loading historical data...
Loading historical data...
Loading historical data...

Documentation

Showing up to 5 results
|